[[{"header":{"parameterUnit":"m.s-1","parameterCategory":1,"la1":30.2991,"la2":30.254,"lo1":-89.0895,"lo2":-89.0444,"dy":0.0017,"dx":0.0017,"nx":28,"ny":28,"refTime":"2024-06-24T03:00:00:Z","depth":0,"parameterNumber":2,"parameterNumberName":"U-component_of_WINDS"},"data":[0,0,0,0,0,0,0,0,0,0,0,0,0,0,0,0,0,0,0,0,0,0,0,0,0,0,0,0,0,0,0,0,0,0,0,0,0,0,0,0,0,0,0,0,0,0,0,0,0,0,0,0,0,0,0,0,0,0,2.3058,2.306,0,2.3224,2.3226,2.3228,2.3256,2.3255,2.3253,2.3252,2.3423,2.3429,2.3435,0,0,0,0,0,0,0,0,0,0,0,0,0,2.2766,2.2771,2.3058,2.306,2.3062,2.3224,2.3226,2.3228,2.3257,2.3255,2.3253,2.3251,2.3421,2.3428,2.3435,0,0,0,0,0,0,0,0,0,0,0,0,0,2.2908,2.2773,2.3057,2.3095,2.31,2.3223,2.3226,2.3229,2.3257,2.3255,2.3253,2.3251,2.3419,2.3428,2.3436,2.3533,0,0,2.3463,2.3467,0,0,0,0,0,0,0,0,2.29,2.2919,2.3088,2.3093,2.3099,2.3217,2.3186,2.3331,2.3257,2.3198,2.3252,2.325,2.3356,2.337,2.3406,2.3541,2.3548,2.3464,2.3469,2.3473,2.3476,0,0,0,0,0,0,0,2.289,2.2912,2.3124,2.309,2.3097,2.3105,2.3123,2.3214,2.3287,2.3203,2.3205,2.3224,2.3359,2.3398,2.341,2.3551,2.3464,2.3472,2.3477,2.348,2.3774,2.3776,0,0,0,0,0,0,2.2873,2.2904,2.3118,2.3128,2.2992,2.3112,2.3132,2.3181,2.3286,2.33,2.3226,2.3225,2.3384,2.34,2.3416,2.3536,2.3473,2.3481,2.3486,2.3771,2.3774,2.3777,0,0,0,0,0,0,2.2867,2.2892,2.3112,2.3017,2.3045,2.3119,2.3175,2.3186,2.3224,2.3304,2.3317,2.3252,2.3383,2.3404,2.3504,2.3542,2.3485,2.3493,2.3768,2.3772,2.3776,2.3776,0,0,0,0,0,0,2.2859,2.289,2.2927,2.3017,2.305,2.3195,2.3177,2.3191,2.3239,2.324,2.3331,2.3344,2.3383,2.349,2.3513,2.3553,2.35,2.3765,2.377,2.3775,2.3772,2.3779,2.3784,0,0,0,0,0,2.2848,2.292,2.2928,2.2954,2.3098,2.3197,2.3216,2.3258,2.3242,2.328,2.3331,2.3341,2.3535,2.35,2.3526,2.3569,2.3763,2.3769,2.3774,2.377,2.3778,2.3784,0,0,0,0,0,0,2.2832,2.2933,2.2943,2.3047,2.3113,2.3202,2.3251,2.3266,2.3338,2.3335,2.3385,2.3406,2.3503,2.3547,2.3506,2.3669,2.3648,2.3659,2.3636,2.3644,2.365,2.3636,2.3507,0,0,0,0,0,2.284,2.2913,2.2997,2.308,2.3113,2.3177,2.3221,2.3249,2.332,2.3348,2.3406,2.3475,2.3552,2.3601,2.3676,2.378,2.38,2.3823,2.3829,2.3833,2.3841,2.39,2.391,2.3796,2.3796,2.3795,0,0,2.2858,2.2923,2.2965,2.3079,2.3134,2.3207,2.32,2.3278,2.3333,2.336,2.3457,2.3503,2.3583,2.3685,2.3733,2.3725,2.3878,2.3841,2.3844,2.3849,2.3906,2.3917,2.3927,2.3799,2.3799,2.3798,0,0,2.2928,2.2985,2.306,2.3116,2.3199,2.3241,2.3259,2.3346,2.3377,2.3476,2.3497,2.3565,2.3695,2.3751,2.3797,2.3891,2.3903,2.3914,2.3944,2.4,2.4009,2.4018,2.405,2.4061,2.3923,2.3923,2.3923,0,2.294,2.3052,2.3097,2.3174,2.3224,2.3252,2.3329,2.3381,2.3484,2.3518,2.3507,2.3672,2.3728,2.3844,2.3867,2.3903,2.3925,2.3902,2.4004,2.4013,2.4022,2.4053,2.4065,2.3923,2.3923,2.3923,2.3923,0,2.3061,2.3139,2.319,2.3289,2.3344,2.3421,2.3478,2.3529,2.3553,2.3596,2.3696,2.3765,2.3854,2.3884,2.3907,2.4003,2.3995,2.3994,2.3974,2.4032,2.4062,2.4075,2.3924,2.3924,2.3924,2.3924,0,0,2.3122,2.3247,2.3265,2.331,2.3406,2.3466,2.3545,2.3632,2.3674,2.3746,2.3813,2.3924,2.3923,2.3975,2.4006,2.4055,2.4124,2.4048,2.4051,2.4058,2.4233,2.4231,2.4244,2.4134,2.4136,2.4138,2.4225,0,2.3202,2.3342,2.3386,2.3504,2.3575,2.3605,2.3674,2.3739,2.3783,2.385,2.3899,2.3976,2.397,2.4002,2.4052,2.4104,2.4159,2.4099,2.4195,2.4198,2.4171,2.426,2.4258,2.4337,2.4238,2.424,2.4241,0,2.3313,2.3386,2.351,2.3597,2.3629,2.3689,2.3773,2.3838,2.3914,2.3942,2.4001,2.4027,2.4111,2.4088,2.4204,2.4162,2.4205,2.4237,2.4241,2.4249,2.4221,2.4269,2.4364,2.4374,2.426,2.4259,2.4257,0,2.3343,2.3473,2.3564,2.3602,2.3706,2.3748,2.3793,2.3867,2.3917,2.3991,2.4024,2.4107,2.4151,2.4215,2.4264,2.4243,2.4375,2.4356,2.44,2.4399,2.4424,2.4421,2.4525,2.4455,2.4455,2.4455,2.4455,0,2.3425,2.35,2.3578,2.3634,2.3719,2.377,2.3852,2.3899,2.3965,2.4031,2.4063,2.4123,2.4185,2.4255,2.4294,2.4383,2.4404,2.4428,2.4437,2.4424,2.4421,2.4451,2.4445,2.4458,2.4458,2.4457,2.4456,0,2.3471,2.3527,2.3628,2.3719,2.3744,2.3802,2.3879,2.3935,2.3981,2.4063,2.4086,2.4157,2.424,2.4296,2.4403,2.4429,2.4526,2.4535,2.45,2.4504,2.4543,2.4538,2.4668,2.4687,2.4607,2.4607,2.4608,0,2.3519,2.3577,2.3674,2.372,2.3766,2.384,2.3891,2.3945,2.3997,2.4089,2.4133,2.4219,2.429,2.4422,2.4483,2.4565,2.4575,2.4615,2.4588,2.4572,2.4574,2.4568,2.4574,2.4618,2.4619,2.4619,2.462,0,2.3597,2.3622,2.3695,2.3777,2.3838,2.3905,2.3973,2.401,2.4075,2.4132,2.4218,2.4273,2.4382,2.4467,2.4555,2.4602,2.4622,2.4629,2.4643,2.4628,2.4605,2.4616,2.4509,2.4625,2.4624,2.4624,2.4624,2.4623,2.3644,2.3697,2.3774,2.3853,2.3911,2.3974,2.403,2.4083,2.4155,2.4248,2.4276,2.4365,2.4441,2.4562,2.4611,2.4681,2.4677,2.4698,2.4703,2.4707,2.4706,2.4596,2.4698,2.4698,2.4698,2.4698,2.4698,0,2.3722,2.3773,2.3847,2.3941,2.4004,2.4018,2.4095,2.4146,2.4224,2.4293,2.4363,2.4462,2.4544,2.4613,2.4698,2.4742,2.4753,2.4762,2.4758,2.4769,2.4705,2.4683,2.4752,2.4752,2.4752,2.4752,2.4752,2.4752,2.3769,2.3859,2.3894,2.4013,2.4064,2.4151,2.4194,2.4252,2.4308,2.4416,2.4485,2.453,2.4599,2.469,2.4767,2.4785,2.4814,2.4821,2.4841,2.4779,2.4773,2.4767,2.4747,2.4827,2.4827,2.4898,2.4899,2.4899]},{"header":{"parameterUnit":"m.s-1","parameterCategory":1,"la1":30.2991,"la2":30.254,"lo1":-89.0895,"lo2":-89.0444,"dy":0.0017,"dx":0.0017,"nx":28,"ny":28,"refTime":"2024-06-24T03:00:00:Z","depth":0,"parameterNumber":3,"parameterNumberName":"V-component_of_WINDS"},"data":[0,0,0,0,0,0,0,0,0,0,0,0,0,0,0,0,0,0,0,0,0,0,0,0,0,0,0,0,0,0,0,0,0,0,0,0,0,0,0,0,0,0,0,0,0,0,0,0,0,0,0,0,0,0,0,0,0,0,2.881,2.881,0,2.8828,2.8828,2.8828,2.8776,2.8775,2.8773,2.8772,2.8789,2.879,2.8792,0,0,0,0,0,0,0,0,0,0,0,0,0,2.8726,2.8728,2.881,2.881,2.881,2.8828,2.8828,2.8829,2.8777,2.8775,2.8773,2.8771,2.8788,2.879,2.8793,0,0,0,0,0,0,0,0,0,0,0,0,0,2.8755,2.8729,2.881,2.8786,2.8785,2.8828,2.8828,2.8829,2.8777,2.8775,2.8772,2.877,2.8787,2.879,2.8793,2.8859,0,0,2.8802,2.8803,0,0,0,0,0,0,0,0,2.8754,2.8758,2.879,2.8788,2.8786,2.8798,2.8805,2.8839,2.8778,2.878,2.8772,2.8769,2.8793,2.8796,2.8804,2.886,2.886,2.8802,2.8804,2.8805,2.8806,0,0,0,0,0,0,0,2.8752,2.8757,2.8817,2.879,2.8788,2.8774,2.8776,2.8811,2.88,2.878,2.8776,2.8779,2.8792,2.8802,2.8804,2.8861,2.8802,2.8804,2.8806,2.8807,2.897,2.8972,0,0,0,0,0,0,2.8753,2.8756,2.8816,2.8817,2.8764,2.8778,2.8779,2.8796,2.8799,2.8797,2.8781,2.8776,2.8798,2.8801,2.8805,2.8882,2.8805,2.8808,2.8809,2.8967,2.897,2.8973,0,0,0,0,0,0,2.8752,2.8759,2.8815,2.8786,2.8792,2.8782,2.8801,2.8798,2.8808,2.88,2.8798,2.8793,2.8796,2.8801,2.8846,2.8881,2.8809,2.8812,2.8964,2.8968,2.8971,2.9037,0,0,0,0,0,0,2.8749,2.8759,2.8785,2.8787,2.8794,2.8857,2.8803,2.88,2.8813,2.8807,2.8811,2.8809,2.8794,2.8842,2.8849,2.8884,2.8814,2.8961,2.8966,2.897,2.9031,2.9042,2.9051,0,0,0,0,0,2.8747,2.8802,2.8786,2.8794,2.8826,2.886,2.8863,2.8846,2.8816,2.8841,2.8836,2.8809,2.8876,2.8847,2.8854,2.8891,2.8958,2.8964,2.897,2.9027,2.904,2.9051,0,0,0,0,0,0,2.8804,2.8802,2.8784,2.8842,2.8852,2.8851,2.8882,2.8861,2.8878,2.8872,2.8848,2.885,2.8899,2.8899,2.8866,2.8954,2.8912,2.892,2.8953,2.8965,2.8975,2.8974,2.8816,0,0,0,0,0,2.8824,2.8852,2.8848,2.8899,2.8905,2.8893,2.8907,2.8892,2.8901,2.8904,2.8903,2.8911,2.8934,2.8949,2.897,2.903,2.903,2.9059,2.907,2.9078,2.9085,2.9116,2.9129,2.8992,2.8992,2.8992,0,0,2.8864,2.8866,2.8886,2.8911,2.8916,2.8945,2.8897,2.8929,2.895,2.8909,2.8952,2.8951,2.8958,2.9011,2.9034,2.9013,2.9123,2.9085,2.9092,2.9095,2.9124,2.9137,2.9148,2.8996,2.8995,2.8994,0,0,2.8952,2.8957,2.9,2.9007,2.9016,2.9007,2.9017,2.902,2.9018,2.906,2.9029,2.9053,2.9093,2.91,2.9108,2.9198,2.9173,2.9205,2.9259,2.9289,2.93,2.931,2.9341,2.9353,2.9212,2.9212,2.9212,0,2.9001,2.9045,2.9025,2.906,2.9072,2.9035,2.9078,2.9085,2.91,2.9108,2.9084,2.9133,2.9136,2.919,2.9211,2.922,2.923,2.9205,2.93,2.931,2.9318,2.9348,2.936,2.9216,2.9215,2.9215,2.9215,0,2.9104,2.9135,2.9168,2.9184,2.9199,2.9238,2.9223,2.924,2.9224,2.9218,2.9261,2.9262,2.9283,2.9294,2.9278,2.9345,2.9332,2.9304,2.9262,2.9335,2.9363,2.9375,2.9221,2.922,2.9219,2.9218,0,0,2.9231,2.9234,2.9247,2.9253,2.926,2.9283,2.9319,2.9339,2.9354,2.9365,2.9395,2.9429,2.9403,2.9413,2.9398,2.9425,2.9495,2.9394,2.9393,2.9413,2.9568,2.9589,2.9603,2.9478,2.948,2.9482,2.9568,0,2.9318,2.9381,2.9364,2.9427,2.9454,2.9419,2.9451,2.9457,2.9452,2.9474,2.9467,2.9492,2.9456,2.9462,2.9487,2.9481,2.9526,2.9475,2.9505,2.9506,2.9505,2.9618,2.964,2.9721,2.9579,2.958,2.9582,0,2.9428,2.9444,2.951,2.9511,2.9522,2.9551,2.9567,2.9588,2.9595,2.9589,2.96,2.9578,2.9613,2.9569,2.9616,2.9582,2.9593,2.9592,2.9594,2.9597,2.9549,2.9624,2.9746,2.9759,2.9599,2.9597,2.9596,0,2.9514,2.9551,2.9595,2.9602,2.9605,2.9625,2.9627,2.9631,2.9644,2.9658,2.9666,2.9684,2.9694,2.9707,2.9691,2.9661,2.974,2.9696,2.9736,2.9737,2.9755,2.9754,2.9882,2.9762,2.9761,2.9761,2.9761,0,2.9613,2.9655,2.9634,2.9661,2.9706,2.9685,2.973,2.9728,2.9731,2.9757,2.9727,2.9752,2.9728,2.975,2.9737,2.9778,2.9782,2.9778,2.9774,2.9781,2.9782,2.9789,2.9783,2.9764,2.9764,2.9763,2.9762,0,2.9717,2.9704,2.975,2.9749,2.9749,2.9783,2.9781,2.9805,2.9797,2.983,2.9836,2.9823,2.9848,2.9832,2.9857,2.9848,2.9901,2.9889,2.9899,2.9896,2.9938,2.9934,3.0075,3.0092,2.996,2.9962,2.9963,0,2.9781,2.9813,2.9814,2.983,2.9834,2.9858,2.9871,2.9851,2.9865,2.9875,2.9898,2.992,2.9936,2.9976,2.9968,2.9987,2.9975,3.0023,2.9978,2.9984,2.9976,2.9975,2.9978,3.0032,3.0034,3.0035,3.0036,0,2.9897,2.9889,2.9909,2.9928,2.9944,2.9957,2.9967,2.9981,2.9961,2.9978,3.0003,3.0016,3.004,3.0062,3.0077,3.0078,3.0054,3.005,3.0061,3.0068,3.0073,3.0071,2.9925,3.0048,3.0046,3.0046,3.0045,3.0045,2.9983,3.0009,3.0014,3.0038,3.0043,3.0054,3.0076,3.0071,3.0092,3.0111,3.0097,3.0126,3.013,3.0148,3.0152,3.0174,3.0154,3.0169,3.0173,3.0177,3.0183,3.0069,3.0176,3.0176,3.0176,3.0175,3.0175,0,3.0097,3.0099,3.012,3.0136,3.0154,3.013,3.014,3.0157,3.0183,3.0189,3.0206,3.0234,3.0254,3.0248,3.0267,3.0285,3.0275,3.0291,3.0289,3.029,3.02,3.0189,3.0299,3.0299,3.0299,3.0299,3.0299,3.0299,3.0159,3.0202,3.0194,3.0239,3.0239,3.0268,3.0276,3.0285,3.029,3.0323,3.034,3.0336,3.0337,3.0355,3.0373,3.037,3.0378,3.0399,3.0393,3.0308,3.0296,3.0285,3.0275,3.0401,3.0401,3.0481,3.0482,3.0482]}]]